Orbital Elements at Epoch 2459200.5 (2020-Dec-17.0) TDB
Reference: JPL 24 (heliocentric ecliptic J2000)
Element | Value | Uncertainty (1-sigma) | Units |
e | .1014757760850246 | 3.1733e-08 | |
a | 2.225391831340673 | 7.2005e-09 | au |
q | 1.999568468162104 | 6.8335e-08 | au |
i | 4.113366081396476 | 3.554e-06 | deg |
node | 190.7229139314184 | 4.6635e-05 | deg |
peri | 247.8249047325731 | 5.0915e-05 | deg |
M | 135.776562870889 | 1.9093e-05 | deg |
tp | 2458743.169178929326 (2019-Sep-16.66917893) | 6.4261e-05 | TDB |
period | 1212.573746928615 3.32 | 5.8851e-06 1.611e-08 | d yr |
n | .2968891590403147 | 1.4409e-09 | deg/d |
Q | 2.451215194519242 | 7.9312e-09 | au |
|
| | Orbit Determination Parameters
Additional Information
|